www.pogodaiklimat.ru

Погода и климат >> Архив погоды >> Мексика >> Piedras Negras


ПОГОДА в Piedras Negras

  • Прогноз погоды в Piedras Negras
  • Монитор погоды в Piedras Negras
  • Климат города

АРХИВ ПОГОДЫ в Piedras Negras

Время (UTC), дата Ветер
(напр.,м/с)
 
Видим.   Явления Облачность Т
(С)
Тd
(С)
f
(%)
Тe
(С)
Тes
(С)
Комфортность P
(гПа)
Po
(гПа)
Тmin
(С)
Tmax
(С)
R
(мм)
S
(см)
03 21.03 ЮВ 1 20 км ясно +25.2 +14.2 50 +28 +28 жарко 1015.7 987.6
06 21.03 ЮВ 1 20 км ясно +21.2 +14.0 63 +24 +24 комфорт 1016.5 988.3 +16.0 +33.8
12 21.03 В 1 20 км ясно +17.0 +14.2 84 +18 +18 1017.8 988.9 +16.4 +33.8
15 21.03 В 2 24 км ясно +18.4 +14.7 79 +19 +25 1020.6 991.4
18 21.03 ЮВ 2 24 км ясно +27.8 +19.3 60 +33 +50 очень
душно
1018.1 989.0 +15.6 +28.8
21 21.03 ЮВ 1 24 км ясно +33.4 +18.0 40 +38 +52 опасность
солнечного
удара
1014.2 985.5
00 22.03 ЮВ 1 24 км ясно +32.8 +15.4 35 +35 +36 душно 1012.3 984.1 +15.6 +35.0
03 22.03 ЮВ 1 20 км ясно +26.4 +20.2 69 +33 +33 очень
душно
1012.5 984.6
06 22.03 В 1 20 км ясно +22.0 +17.9 78 +27 +27 душно 1013.7 985.7 +15.6 +35.0
09 22.03 В 1 20 км ясно +19.2 +16.5 84 +22 +22 комфорт 1013.9 985.7
12 22.03 В 1 20 км 10/10 420 м
[Sc diur, vesp]
+18.8 +16.7 88 +21 +21 комфорт 1014.7 986.1 +17.4 +35.0
15 22.03 В 1 20 км 10/10 420 м
[Sc diur, vesp]
+18.8 +16.7 88 +21 +21 комфорт 1014.7 986.1 +17.4 +35.0
18 22.03 В 1 22 км 10/10 300 м
[Frnb]
+22.2 +19.6 85 +28 +28 душно 1019.6 990.5 +17.4 +23.0
21 22.03 ЮВ 3 22 км {туман} 4/4 480 м
[Cu med, cong]
+29.8 +22.2 64 +39 +45 очень
душно
1017.0 988.2
00 23.03 В 2 22 км ясно +31.2 +23.7 64 +42 +43 опасность
перегрева
1014.5 986.1 +17.4 +32.4
03 23.03 ЮВ 1 20 км ясно +25.8 +17.3 59 +30 +30 душно 1015.2 986.9
06 23.03 ЮВ 1 20 км ясно +22.0 +15.3 66 +26 +26 душно 1016.0 987.8 +17.4 +32.4
12 23.03 ЮВ 1 20 км 10/10 300 м
[Frnb]
+19.4 +18.8 96 +23 +23 комфорт 1016.2 986.8 +18.8 +32.4
15 23.03 ЮВ 2 22 км 10/10 300 м
[Frnb]
+21.2 +18.3 84 +25 +25 комфорт 1017.0 988.2
18 23.03 ЮВ 2 22 км 9/9 300 м
[Frnb]
+25.6 +19.3 68 +31 +33 очень
душно
1015.7 986.9 +18.8 +26.2
21 23.03 ЮВ 2 24 км 8/8 480 м
[Sc diur, vesp]
+30.2 +15.4 41 +33 +35 душно 1011.9 983.4
00 24.03 ЮВ 2 23 км 8/0
[Cs]
+29.8 +14.8 40 +32 +33 душно 1009.0 980.9 +18.8 +32.0
03 24.03 ЮВ 2 20 км ясно +26.0 +20.7 73 +33 +33 очень
душно
1008.4 980.4
06 24.03 Ю 3 20 км ясно +23.2 +19.2 78 +30 +30 очень
душно
1008.4 980.4 +18.8 +32.0
12 24.03 Ю 1 20 км ясно +21.4 +18.2 82 +26 +26 душно 1012.7 983.5 +20.2 +32.0
15 24.03 С 2 24 км ясно +21.8 +11.4 52 +24 +30 комфорт 1015.2 985.8
18 24.03 С 2 24 км ясно +28.2 +6.8 26 +27 +45 жарко 1015.3 986.6 +20.0 +29.0
21 24.03 Ю 1 24 км ясно +32.6 +17.4 40 +36 +51 опасность
солнечного
удара
1013.0 984.6
00 25.03 В 2 24 км ясно +31.2 +15.9 40 +34 +35 душно 1012.6 984.5 +20.0 +34.2
03 25.03 В 1 20 км ясно +24.2 +9.3 39 +25 +25 комфорт 1012.2 984.2
06 25.03 З 1 20 км ясно +21.0 +7.9 43 +23 +23 комфорт 1014.3 986.1 +20.0 +34.2
12 25.03 СЗ 1 20 км ясно +15.8 +2.9 42 +17 +17 1018.6 989.0 +14.8 +34.2
15 25.03 С 3 24 км ясно +20.4 +3.5 33 +21 +26 комфорт 1022.6 992.6
18 25.03 С 2 24 км ясно +25.8 +5.4 27 +25 +43 комфорт 1019.6 990.5 +14.8 +26.4
21 25.03 С 2 24 км ясно +31.6 +17.1 42 +35 +48 очень
душно
1014.8 986.1
00 26.03 Ю 2 24 км ясно +31.2 +19.1 49 +37 +38 очень
душно
1012.9 984.6 +14.8 +34.8
03 26.03 ЮВ 1 20 км ясно +24.4 +18.0 68 +29 +29 душно 1008.4 981.4
06 26.03 ЮВ 2 20 км ясно +20.4 +15.2 72 +24 +24 комфорт 1008.4 980.4 +14.8 +34.8
12 26.03 В 1 20 км ясно +18.0 +15.9 88 +19 +19 1008.6 980.0 +16.5 +34.8
15 26.03 Ю 1 23 км ясно +20.0 +16.1 78 +24 +31 комфорт 1010.0 981.1
18 26.03 ЮВ 1 24 км ясно +29.6 +17.1 47 +33 +54 опасность
солнечного
удара
1009.5 980.9 +16.5 +30.2
21 26.03 С 1 24 км ясно +35.4 +20.6 42 +42 +57 опасность
перегрева
1005.1 979.6
00 27.03 С 1 24 км ясно +35.0 +19.7 41 +41 +42 опасность
перегрева
1003.7 975.9 +16.5 +36.8
03 27.03 С 2 20 км ясно +27.8 +18.3 56 +33 +33 очень
душно
1006.9 979.3
06 27.03 В 2 20 км ясно +24.0 +19.1 74 +29 +29 душно 1008.4 980.6 +16.5 +36.8
09 27.03 В 1 20 км ясно +21.6 +19.3 87 +27 +27 душно 1007.0 979.0
12 27.03 СВ 2 20 км 10/10 420 м
[Sc diur, vesp]
+21.4 +20.0 92 +27 +27 душно 1010.0 981.7 +20.4 +36.8
15 27.03 В 1 22 км 10/10 300 м
[Frnb]
+23.4 +21.7 90 +32 +32 очень
душно
1012.5 983.5
18 27.03 СВ 1 22 км 8/8 500 м
[Cu hum]
+28.0 +20.8 65 +35 +39 очень
душно
1012.3 983.7 +20.4 +29.2
21 27.03 В 2 22 км мгла {туман} ясно +32.6 +22.9 57 +43 +55 опасность
перегрева
1009.3 981.0
00 28.03 ЮВ 3 22 км мгла {туман} ясно +31.8 +23.2 60 +42 +43 опасность
перегрева
1007.1 979.2 +20.4 +35.2

 

Местоположение метеостанции Piedras Negras (Мексика): широта 28.70 долгота -100.50 высота над уровнем моря 250 м.

В архиве по умолчанию представлена погода в Piedras Negras за последнюю неделю. Архивные данные за месяц целиком и за предыдущие месяцы, начиная с января 2011 года, Вы можете получить, выбрав интересующий диапазон дат из раскрывающегося списка и нажав кнопку "Ввод!".

Внимание! Время в таблицах - всемирное. Для получения местного времени необходимо прибавить поправку, которая в Piedras Negras равна -7 ч.

Смотрите также архив погоды в соседних городах и на ближайших метеорологических станциях:

Погода в Monclova (Мексика) (221 км)
Погода в Monterrey (Мексика) (331 км)
Погода в Saltillo (Мексика) (374 км)
Погода в Torreon (Мексика) (455 км)
Погода в Chihuahua University (Мексика) (537 км)
Погода в Hidalgo del Parral (Мексика) (539 км)
Погода в Chihuahua (Мексика) (544 км)
Погода в Ciudad Victoria (Мексика) (569 км)
Погода в Soto La Marina (Мексика) (594 км)
Погода в Tepehuanes (Мексика) (638 км)

Пояснения к столбцам:

Ветер - указаны скорость ветра в м/с - средняя за 10 мин, порывы в срок и между сроками (в фигурных скобках) и направление, откуда дует ветер: С - северный, СВ - северо-восточный, В - восточный, ЮВ - юго-восточный, Ю - южный, ЮЗ - юго-западный, З - западный, СЗ - северо-западный.
Видимость - горизонтальная дальность видимости в метрах или километрах. При видимости от 1 до 10 км при отсутствии осадков обычно наблюдается дымка, при ухудшении видимости до 1 км и менее - туман. В сухую погоду видимость может ухудшаться дымом, пылью или мглою.
Явления - указаны атмосферные явления, наблюдавшиеся в срок или в последний час перед сроком; фигурными скобками обозначены явления, наблюдавшиеся между сроками (за 1-3 часа до срока); квадратными скобками обозначены град или гололедные отложения с указанием их диаметра в мм.
Облачность - указаны через наклонную черту общая и нижняя облачность в баллах и высота нижней границы облаков в метрах; квадратными скобками обозначены формы облаков: Ci - перистые, Cs - перисто-слоистые, Cc - перисто-кучевые, Ac - высококучевые, As - высокослоистые, Sc - слоисто-кучевые, Ns - слоисто-дождевые, Cu - кучевые, Cb - кучево-дождевые. Подробнее классификацию облаков см. в Атласе облаков (PDF).
T - Температура воздуха - температура, измеренная на высоте 2 м над землей.
Td - Температура точки росы - температура, при понижении до которой содержащийся в воздухе водяной пар достигнет насыщения.
f - Относительная влажность воздуха - влажноcть воздуха, измеренная на высоте 2 м над землей.
Te - Эффективная температура - температура, которую ощущает одетый по сезону человек в тени. Характеристика душности погоды. При расчете учитывается влияние влажности воздуха и скорости ветра на теплоощущения человека.
Tes - Эффективная температура на солнце - температура, которую ощущает человек, с поправкой на солнечный нагрев. Характеристика знойности погоды. Зависит от высоты солнца над горизонтом, облачности и скорости ветра. Ночью, в пасмурную погоду, а также при ветре 12 м/с и более поправка равна нулю.
P - Атмосферное давление - приведенное к уровню моря атмосферное давление.
Po - Атмосферное давление - измеренное на уровне метеостанции атмосферное давление.
Tmin - Минимальная температура - минимум температуры воздуха на высоте 2 м над землей.
Tmax - Максимальная температура - максимум температуры воздуха на высоте 2 м над землей.
R - Количество осадков - Количество выпавших осадков, мм. При наведении курсора мыши на число - период времени, за который выпало указанное количество осадков.
S - Снежный покров - Высота снежного покрова, см. При наведении курсора мыши на число - состояние снежного покрова и степень покрытия местности в баллах.